{"data":{"norad_id":69303,"intl_designator":"2026-119H","name":"STARLINK-37730","alt_names":[],"object_type":"PAYLOAD","status":"ACTIVE","operator":null,"country":"US","launch_date":"2026-05-30","launch_site_code":"AFWTR","launch_vehicle":null,"mission":null,"orbit_class":"UNKNOWN","rcs_meters":null,"size_class":null,"mass_kg":null,"dimensions":null,"purposes":["comms"],"wikipedia_slug":null,"has_3d_model":false,"image_url":null,"decayed_at":null,"tle_current":{"epoch":"2026-09-20T01:18:49.917888Z","epoch_age_seconds":67518,"freshness":"FRESH","line1":"1 69303U 26119H   26263.05474442  .00011675  00000+0  36340-3 0  9997","line2":"2 69303  97.2843 287.7717 0001216  91.3960 268.7422 15.33444127 18591","mean_motion":15.33444127,"eccentricity":0.0001216,"inclination_deg":97.2843,"raan_deg":287.7717,"arg_perigee_deg":91.396,"mean_anomaly_deg":268.7422,"bstar":0.0003634,"rev_number":1859,"period_min":93.906258118265,"perigee_km":464.71358008809,"apogee_km":466.37796373822,"semimajor_km":6843.6827719132,"source":"CELESTRAK","updated_at":"2026-09-20T09:00:44.155308Z"}}}